This is the latest recevied weather packets stored in our database for station/object N0QWM. If no packets are shown the sender has not sent any weather packets the latest 10 day(s).
| Time | Temp. | Humidity | Pressure | Rain* | Wind** | Luminosity | Snow |
|---|---|---|---|---|---|---|---|
| 1788216277 | 33.89° C | 57% | 1022.5 hPa | 0 mm | - | 35 W/m² | - |
| 1788215972 | 33.89° C | 58% | 1022.6 hPa | 0 mm | - | 87 W/m² | - |
| 1788215668 | 33.89° C | 58% | 1022.6 hPa | 0 mm | - | 39 W/m² | - |
| 1788215365 | 33.89° C | 58% | 1022.5 hPa | 0 mm | - | 40 W/m² | - |
| 1788215068 | 34.44° C | 57% | 1022.2 hPa | 0 mm | - | 41 W/m² | - |
| 1788214755 | 34.44° C | 57% | 1022.5 hPa | 0 mm | - | 43 W/m² | - |
| 1788214451 | 34.44° C | 57% | 1022.6 hPa | 0 mm | - | 43 W/m² | - |
| 1788214159 | 33.89° C | 57% | 1022.6 hPa | 0 mm | - | 79 W/m² | - |
| 1788213841 | 35° C | 55% | 1022.6 hPa | 0 mm | - | 228 W/m² | - |
| 1788213536 | 35° C | 55% | 1022.5 hPa | 0 mm | - | 234 W/m² | - |
| 1788213232 | 35° C | 55% | 1022.5 hPa | 0 mm | - | 196 W/m² | - |
| 1788212928 | 34.44° C | 56% | 1022.6 hPa | 0 mm | - | 51 W/m² | - |
| 1788212620 | 34.44° C | 57% | 1022.5 hPa | 0 mm | - | 53 W/m² | - |
| 1788212320 | 34.44° C | 57% | 1022.8 hPa | 0 mm | - | 55 W/m² | - |
| 1788212017 | 34.44° C | 57% | 1022.8 hPa | 0 mm | - | 78 W/m² | - |
| 1788211712 | 34.44° C | 56% | 1022.6 hPa | 0 mm | - | 294 W/m² | - |
| 1788211408 | 35.56° C | 54% | 1022.9 hPa | 0 mm | - | 346 W/m² | - |
| 1788211107 | 35.56° C | 54% | 1022.8 hPa | 0 mm | - | 393 W/m² | - |
| 1788210802 | 35.56° C | 54% | 1022.9 hPa | 0 mm | - | 442 W/m² | - |
| 1788210501 | 35° C | 55% | 1023 hPa | 0 mm | - | 297 W/m² | - |
| 1788210198 | 35.56° C | 54% | 1023 hPa | 0 mm | - | 449 W/m² | - |
| 1788209892 | 35° C | 54% | 1022.9 hPa | 0 mm | - | 426 W/m² | - |
| 1788209588 | 33.89° C | 56% | 1023 hPa | 0 mm | - | 441 W/m² | - |
| 1788209288 | 34.44° C | 54% | 1023 hPa | 0 mm | - | 105 W/m² | - |
| 1788208987 | 35.56° C | 52% | 1023.2 hPa | 0 mm | - | 95 W/m² | - |
* Rain latest hour (hover to see other rain measurements)
** Current wind speed in m/s (hover to see current wind gust speed)